Location: Bolleroda
(51.0180°N, 10.3962°E)
Time: 04:52:33
(UTC+00:00)

Daily predictions for brighter satellites

Satellite Brightness Start Highest point End
(mag) Time Altitude Azimuth Time Altitude Azimuth Time Altitude Azimuth
ATLAS 3B R/B 4.4 02:27:10 29° NNE 02:27:10 29° NNE 02:31:53 10° NE
ACS3 Solar Sail 4.4 02:28:35 10° NNE 02:28:40 10° NNE 02:28:40 10° NNE
Cosmos 2322 Rocket 4.4 02:50:36 20° NE 02:50:36 20° NE 02:54:22 10° E
NOSS 3-1 (A) 4.5 03:09:51 46° NNE 03:10:05 47° NNE 03:17:55 10° ESE
SL-16 R/B 3.4 03:19:10 37° NE 03:19:10 37° NE 03:24:09 10° ESE
Cosmos 2082 Rocket 3.2 03:23:08 43° E 03:23:08 43° E 03:27:42 10° NE
USA 234 3.6 03:22:59 10° ENE 03:28:36 56° NNE 03:28:36 56° NNE
SeaSat 1 4.5 03:26:21 10° NNE 03:27:53 20° NNE 03:27:53 20° NNE
NOSS 3-1 (C) 3.8 03:52:30 71° WNW 03:53:24 82° SW 04:02:06 10° SE
Timation 1 Rocket 4.4 03:56:01 65° N 03:56:01 65° N 04:01:08 10° NNE
Cosmos 841 Rocket 3.9 04:00:24 41° SSE 04:02:02 60° ESE 04:07:13 10° NNE
COSMOS 2455 3.4 04:07:00 43° SSW 04:07:00 43° SSW 04:11:18 10° SSE
Cosmos 2360 Rocket 3.1 04:09:26 29° N 04:11:50 45° NE 04:17:13 10° SE
Cosmos 2333 Rocket 2.6 04:11:00 41° N 04:12:55 63° NE 04:18:37 10° SE
ACS3 Solar Sail 3.9 04:12:20 10° N 04:12:40 11° N 04:12:40 11° N
ATLAS 3B R/B 4.0 04:14:24 27° NNW 04:17:47 37° NNE 04:24:53 10° E
Nadezhda 4 Rocket 3.9 04:12:42 10° S 04:19:01 89° W 04:25:20 10° N
NOSS 3-4 (A) 4.2 04:23:03 34° NNW 04:23:03 34° NNW 04:28:35 10° NE
NOSS 3-4 (C) 4.2 04:23:12 34° NNW 04:23:12 34° NNW 04:28:45 10° NE
Cosmos 1892 Rocket 4.1 04:19:33 10° S 04:23:50 57° E 04:28:11 10° NNE
Cosmos-2242 3.8 04:24:05 26° NNE 04:26:10 48° ENE 04:30:14 10° SSE
Cosmos 1898 Rocket 4.5 04:29:28 32° SSW 04:29:28 32° SSW 04:32:37 10° S
Cosmos 220 Rocket 4.2 04:29:35 57° NNE 04:29:35 57° NNE 04:32:56 10° NNE
Cosmos 2219 Rocket 3.3 04:25:49 20° N 04:29:17 40° NE 04:34:34 10° ESE
COSMO-SKYMED 1 2.5 04:27:47 10° SSE 04:31:54 74° ENE 04:32:40 56° N
IRS-1D 3.5 04:27:58 10° NNE 04:33:00 78° ESE 04:38:05 10° SSW
Meteor 2-20 4.4 04:28:26 10° N 04:34:36 86° E 04:40:42 10° S
Cosmos 2322 Rocket 2.4 04:32:25 30° NNW 04:35:21 70° ENE 04:41:01 10° SE
Orbus 7S? 3.3 04:48:21 48° E 04:48:21 48° E 04:50:28 10° ESE
Cosmos 1937 Rocket 3.9 04:49:25 39° WSW 04:49:25 39° WSW 04:53:43 10° S
USA 59 Rocket 2.0 04:54:18 16° SSW 04:54:18 16° SSW 04:56:03 10° SSW
Cosmos 2333 4.4 04:49:16 21° NNW 04:53:10 69° ENE 04:58:51 10° SE
BREEZE-M DEB (TANK) 3.9 04:55:04 21° SE 04:55:04 21° SE 04:55:57 10° ESE
Cosmos 1833 Rocket 4.3 04:55:08 18° NNW 04:55:08 18° NNW 04:58:16 10° NNE
Meteor 1-26 Rocket 4.1 04:49:16 11° NNW 04:54:32 84° W 05:00:13 10° S
Meteor 2-3 Rocket 3.6 04:49:08 10° SSW 04:54:51 74° WNW 05:00:33 10° N
Cosmos 1484 Rocket 3.7 04:51:56 10° NNE 04:55:13 42° E 04:58:26 10° S
Meteor 2-20 Rocket 4.2 04:50:35 10° N 04:56:23 89° ENE 05:02:06 10° S
Cosmos 2058 Rocket 2.9 04:54:41 25° NNW 04:57:16 78° W 05:01:40 10° S
SKYMED 2 3.9 04:56:16 10° S 05:00:15 41° WSW 05:00:15 41° WSW
COSMOS 2406 3.1 04:55:16 11° SW 05:00:47 67° WNW 05:06:28 10° NNE
NOSS 3-1 (A) 4.0 04:57:15 28° NW 05:01:25 70° SW 05:10:08 10° SSE
SL-16 R/B 2.4 05:01:03 33° WNW 05:03:11 49° WSW 05:08:35 10° S
COSMOS 2428 4.2 05:01:17 11° NNW 05:06:13 32° NE 05:11:16 10° ESE
CZ-4 R/B 3.7 05:01:52 10° N 05:06:28 62° WNW 05:11:01 10° SSW
Cosmos 2082 Rocket 2.6 05:05:01 33° W 05:06:32 39° NW 05:11:48 10° NNE
SeaSat 1 3.8 05:04:26 10° N 05:07:30 21° NNW 05:07:30 21° NNW
Cosmos 1627 Rocket 4.3 05:03:33 10° SSW 05:09:39 72° WNW 05:15:49 10° N
ATLAS 5 CENTAUR R/B 3.2 05:10:38 14° N 05:10:38 14° N 05:12:14 10° NNE
USA 234 3.6 05:05:37 10° E 05:11:59 55° N 05:15:57 24° WNW
Okean 1 2.9 05:11:24 37° NNW 05:12:35 62° W 05:16:06 10° S
BREEZE-M DEB (TANK) 3.0 05:12:02 40° SW 05:12:45 58° S 05:14:59 10° E
CZ-2C R/B 4.2 05:11:42 10° N 05:13:15 16° NNW 05:13:15 16° NNW
Helios 1A Rocket 3.1 05:13:11 10° SSW 05:15:55 35° WSW 05:15:55 35° WSW
NOAA 12 4.1 05:11:36 10° N 05:16:46 55° WNW 05:21:52 10° SW
Cosmos 1814 Rocket 4.4 05:12:04 10° S 05:17:15 67° ESE 05:22:32 10° NNE
DMSP B5D1-3 4.4 05:14:51 10° S 05:19:57 73° WSW 05:25:05 10° NNW
CBERS-1 4.5 05:15:42 10° NNE 05:20:48 65° ESE 05:25:50 10° S
IRIDIUM 114 4.5 05:15:48 10° S 05:21:00 79° E 05:26:15 10° N
Cosmos 2285 Rocket 4.0 05:17:03 12° NNW 05:23:07 78° WSW 05:29:31 10° SSE
BREEZE-M DEB (TANK) 2.8 05:23:26 33° WSW 05:24:31 72° S 05:29:43 10° E
USA 229 4.4 05:20:07 16° NW 05:25:52 56° NE 05:33:42 10° ESE
USA 229 DEB 4.4 05:20:12 16° NW 05:25:57 56° NE 05:33:47 10° ESE
BREEZE-M DEB (TANK) 3.6 05:24:35 20° WSW 05:26:22 35° S 05:32:31 10° ESE
Cosmos 2278 4.2 05:24:16 23° WNW 05:27:08 38° WSW 05:32:16 10° S
SL-4 R/B 1.8 05:28:33 31° W 05:29:43 49° SSW 05:32:48 10° SE
IRIDIUM 103 4.3 05:24:57 10° S 05:30:10 88° W 05:35:26 10° N
Cosmos 2151 3.9 05:28:09 10° SSE 05:32:05 48° E 05:36:03 10° NNE
Cosmos 1758 Rocket 3.6 05:29:27 10° S 05:33:52 83° E 05:38:17 10° NNE
CZ-2D R/B 4.5 05:31:31 10° NNE 05:34:30 35° E 05:37:26 10° SSE
Cosmos 2026 Rocket 4.1 05:29:06 10° SW 05:34:54 47° WNW 05:40:48 10° N
Cosmos 2221 2.6 05:30:49 10° N 05:34:59 75° E 05:39:06 10° SSE
Thor Agena Rocket 4.0 05:33:55 10° NNE 05:38:58 64° ESE 05:43:57 10° S
Cosmos 1238 Rocket 4.0 05:39:20 10° N 05:41:54 28° ENE 05:44:25 10° SE
SL-16 R/B 4.4 05:39:49 10° N 05:42:59 15° NNE 05:46:08 10° ENE
Cosmos 405 Rocket 2.2 05:40:21 10° SSW 05:43:35 65° WNW 05:46:52 10° N
Cosmos 841 Rocket 4.4 05:40:31 13° WSW 05:44:13 27° NW 05:48:42 10° N
Cosmos 1707 2.7 05:42:30 10° N 05:45:37 59° ENE 05:48:43 10° SSE
IRIDIUM 106 4.3 05:43:21 10° SSW 05:48:32 64° W 05:53:44 10° N
Cosmos 158 Rocket 4.0 05:44:01 10° SSW 05:49:21 84° WNW 05:54:36 10° NNE
KORONAS-FOTON 3.6 05:49:49 10° N 05:53:13 77° E 05:56:35 10° SSE
Cosmos 2360 Rocket 2.8 05:51:12 13° NW 05:55:45 38° WSW 06:00:52 10° S
S3M 4.0 05:49:32 10° N 05:55:47 88° ENE 06:01:55 10° S
Cosmos 2333 Rocket 3.2 05:53:03 14° NW 05:56:48 27° WSW 06:01:31 10° SSW
Cosmos 1626 Rocket 3.7 05:52:37 10° SSW 05:56:55 51° WNW 06:01:14 10° N
Cosmos 1553 Rocket 4.3 05:51:09 10° NNW 05:57:15 49° W 06:03:21 10° SSW
SMAP 3.1 05:54:39 10° NNE 05:59:21 88° WNW 06:04:01 10° SSW
Cosmos 1833 4.2 05:55:42 10° SSW 06:01:21 86° WNW 06:07:07 10° NNE
Cosmos-2242 4.3 06:00:27 13° NW 06:02:51 19° W 06:05:52 10° SW
SL-08 R/B 3.8 05:59:02 10° SSE 06:03:34 60° ENE 06:08:12 10° N
Cosmos 1842 3.1 06:00:31 10° N 06:03:52 71° E 06:07:10 10° SSE
Landsat 7 3.8 05:59:58 10° NNE 06:04:39 86° ESE 06:09:18 10° SSW
Cosmos 2237 Rocket 3.4 06:01:30 10° NNW 06:06:43 36° NE 06:11:53 10° ESE
COSMO-SKYMED 1 4.2 06:05:39 10° WSW 06:07:43 13° W 06:08:59 12° WNW
Cosmos 1125 Rocket 3.5 06:02:32 10° NNW 06:07:46 66° WSW 06:12:55 10° S
ATLAS 3B R/B 3.2 06:01:49 10° NW 06:09:46 76° NE 06:17:20 10° SE
Meteor 1-10 Rocket 4.3 06:04:04 10° NNW 06:09:58 75° W 06:15:53 10° S
Cosmos 2219 Rocket 2.6 06:07:56 10° NW 06:13:19 45° WSW 06:18:38 10° S
Meteor 1-19 Rocket 4.4 06:09:37 10° NNW 06:15:20 64° W 06:21:11 10° S
NOSS 0 Rocket 4.3 06:11:07 10° NNW 06:17:20 68° NE 06:23:33 10° SE
Cosmos 2322 Rocket 3.4 06:14:25 10° NW 06:18:52 24° WSW 06:23:17 10° SSW
BREEZE-M DEB (TANK) 3.9 06:05:38 10° W 06:21:34 80° S 06:25:37 10° E
IGS 5A 4.4 06:23:19 10° N 06:26:38 25° WNW 06:29:57 10° WSW
Okean 1-7 Rocket 3.6 06:22:11 10° SSW 06:26:39 67° WNW 06:31:08 10° N
Cosmos 1812 Rocket 4.2 06:23:02 10° NNW 06:26:58 35° W 06:30:54 10° SSW
YAOGAN 11 4.1 06:22:59 10° SSE 06:27:21 85° WSW 06:31:41 10° NNW
Cosmos 1484 Rocket 3.9 06:25:31 10° NNW 06:27:49 17° WNW 06:30:05 10° WSW
Cosmos 2322 3.7 06:22:54 10° NNW 06:28:35 77° WSW 06:34:13 10° SSE
SJ-12 3.8 06:27:53 10° N 06:31:37 54° WNW 06:35:20 10° SSW
Cosmos 2266 Rocket 4.1 06:26:51 10° SSW 06:33:09 61° WNW 06:39:25 10° N
Cosmos 1437 Rocket 3.3 06:30:09 10° NNW 06:33:12 30° W 06:36:16 10° SSW
Cosmos 1602 Rocket 4.0 06:31:19 10° SW 06:35:29 39° WNW 06:39:41 10° N
ATLAS 2AS CENTAUR R/B 2.8 06:29:57 10° SW 06:37:00 88° SE 06:43:54 10° NE
